,,,PA_Meas_PMT16A,,PR_Meas_QMR101_102,,RH_Meas_QMH101,,SR_Meas_QMS101,,TA_Meas_QMH101,,GenWind,,GenWind,
date,time,status,PA,status,PR,status,RH,status,SR,status,TA,status,DirAvg,status,SpdAvg,
2010-03-12, 00:00:04,VALID,1005.45,VALID,0,VALID,92.7762,VALID,0.112286,VALID,21.4385,VALID,83,VALID,0,
2010-03-12, 00:01:04,VALID,1005.44,VALID,0,VALID,92.7762,VALID,0.112286,VALID,21.458,VALID,83,VALID,0,
2010-03-12, 00:02:04,VALID,1005.45,VALID,0,VALID,92.8296,VALID,0.112286,VALID,21.497,VALID,83,VALID,0,
2010-03-12, 00:03:04,VALID,1005.41,VALID,0,VALID,92.7914,VALID,0,VALID,21.5165,VALID,83,VALID,0,
2010-03-12, 00:04:04,VALID,1005.39,VALID,0,VALID,92.7075,VALID,0,VALID,21.5148,VALID,83,VALID,0,
2010-03-12, 00:05:04,VALID,1005.39,VALID,0,VALID,92.7304,VALID,0.112286,VALID,21.5555,VALID,83,VALID,0,
2010-03-12, 00:06:04,VALID,1005.4,VALID,0,VALID,92.6083,VALID,0.112286,VALID,21.536,VALID,83,VALID,0,
2010-03-12, 00:07:04,VALID,1005.36,VALID,0,VALID,92.4481,VALID,0,VALID,21.5165,VALID,83,VALID,0,
2010-03-12, 00:08:04,VALID,1005.36,VALID,0,VALID,92.2955,VALID,0.112286,VALID,21.458,VALID,83,VALID,0,
2010-03-12, 00:09:04,VALID,1005.33,VALID,0,VALID,92.265,VALID,0,VALID,21.3995,VALID,83,VALID,0,
2010-03-12, 00:10:04,VALID,1005.33,VALID,0,VALID,92.326,VALID,0,VALID,21.3816,VALID,83,VALID,0,
2010-03-12, 00:11:04,VALID,1005.3,VALID,0,VALID,92.471,VALID,0.112286,VALID,21.3605,VALID,83,VALID,0,
2010-03-12, 00:12:04,VALID,1005.3,VALID,0,VALID,92.4252,VALID,0,VALID,21.3621,VALID,83,VALID,0,
2010-03-12, 00:13:04,VALID,1005.29,VALID,0,VALID,92.4405,VALID,0,VALID,21.3215,VALID,83,VALID,0,
2010-03-12, 00:14:04,VALID,1005.25,VALID,0,VALID,92.4939,VALID,0,VALID,21.3215,VALID,83,VALID,0,
2010-03-12, 00:15:04,VALID,1005.26,VALID,0,VALID,92.5168,VALID,0,VALID,21.3231,VALID,83,VALID,0,
2010-03-12, 00:16:04,VALID,1005.22,VALID,0,VALID,92.5549,VALID,0,VALID,21.3231,VALID,83,VALID,0,
2010-03-12, 00:17:04,VALID,1005.24,VALID,0,VALID,92.5931,VALID,0,VALID,21.3215,VALID,88,VALID,0,
2010-03-12, 00:18:04,VALID,1005.23,VALID,0,VALID,92.6541,VALID,0.112286,VALID,21.3215,VALID,89,VALID,0,
2010-03-12, 00:19:04,VALID,1005.22,VALID,0,VALID,92.7914,VALID,0.112286,VALID,21.38,VALID,102,VALID,0,
2010-03-12, 00:20:04,VALID,1005.22,VALID,0,VALID,92.8448,VALID,0.112286,VALID,21.419,VALID,128,VALID,0,
2010-03-12, 00:21:04,VALID,1005.24,VALID,0,VALID,92.7304,VALID,0,VALID,21.4385,VALID,128,VALID,0,
2010-03-12, 00:22:04,VALID,1005.26,VALID,0,VALID,92.6388,VALID,0.112286,VALID,21.419,VALID,128,VALID,0,
2010-03-12, 00:23:04,VALID,1005.28,VALID,0,VALID,92.6083,VALID,0,VALID,21.38,VALID,128,VALID,0,
2010-03-12, 00:24:04,VALID,1005.27,VALID,0,VALID,92.5549,VALID,0,VALID,21.38,VALID,128,VALID,0,
2010-03-12, 00:25:04,VALID,1005.31,VALID,0,VALID,92.471,VALID,0,VALID,21.3605,VALID,128,VALID,0,
2010-03-12, 00:26:04,VALID,1005.27,VALID,0,VALID,92.3871,VALID,0.112286,VALID,21.3215,VALID,128,VALID,0,
2010-03-12, 00:27:04,VALID,1005.27,VALID,0,VALID,92.5091,VALID,0.112286,VALID,21.3215,VALID,128,VALID,0,
2010-03-12, 00:28:04,VALID,1005.23,VALID,0,VALID,92.6236,VALID,0,VALID,21.3215,VALID,128,VALID,0,
2010-03-12, 00:29:04,VALID,1005.24,VALID,0,VALID,92.532,VALID,0,VALID,21.3215,VALID,128,VALID,0,
2010-03-12, 00:30:04,VALID,1005.2,VALID,0,VALID,92.5015,VALID,0,VALID,21.2841,VALID,128,VALID,0,
2010-03-12, 00:31:04,VALID,1005.21,VALID,0,VALID,92.4634,VALID,0,VALID,21.263,VALID,128,VALID,0,
2010-03-12, 00:32:04,VALID,1005.19,VALID,0,VALID,92.5015,VALID,0,VALID,21.263,VALID,128,VALID,0,
2010-03-12, 00:33:04,VALID,1005.21,VALID,0,VALID,92.6923,VALID,0,VALID,21.3231,VALID,132,VALID,0,
2010-03-12, 00:34:04,VALID,1005.22,VALID,0,VALID,92.6694,VALID,0,VALID,21.3426,VALID,134,VALID,0,
2010-03-12, 00:35:04,VALID,1005.19,VALID,0,VALID,92.5549,VALID,0,VALID,21.3231,VALID,134,VALID,0,
2010-03-12, 00:36:04,VALID,1005.19,VALID,0,VALID,92.4405,VALID,0,VALID,21.3036,VALID,134,VALID,0,
2010-03-12, 00:37:04,VALID,1005.16,VALID,0,VALID,92.4863,VALID,0,VALID,21.2841,VALID,38,VALID,0,
2010-03-12, 00:38:04,VALID,1005.2,VALID,0,VALID,92.5549,VALID,0,VALID,21.2646,VALID,33,VALID,0.0160156,
2010-03-12, 00:39:04,VALID,1005.15,VALID,0,VALID,92.5244,VALID,0,VALID,21.2646,VALID,28,VALID,0.517969,
2010-03-12, 00:40:04,VALID,1005.15,VALID,0,VALID,92.41,VALID,0,VALID,21.2435,VALID,28,VALID,0.639844,
2010-03-12, 00:41:04,VALID,1005.16,VALID,0,VALID,92.6007,VALID,0,VALID,21.185,VALID,28,VALID,0.542578,
2010-03-12, 00:42:04,VALID,1005.15,VALID,0,VALID,92.9288,VALID,0,VALID,21.2841,VALID,28,VALID,0.611328,
2010-03-12, 00:43:04,VALID,1005.11,VALID,0,VALID,92.9593,VALID,0,VALID,21.3426,VALID,38,VALID,0.519922,
2010-03-12, 00:44:04,VALID,1005.13,VALID,0,VALID,92.883,VALID,0,VALID,21.3605,VALID,38,VALID,0.601563,
2010-03-12, 00:45:04,VALID,1005.12,VALID,0,VALID,92.8754,VALID,0,VALID,21.4011,VALID,45,VALID,0.683594,
2010-03-12, 00:46:04,VALID,1005.09,VALID,0,VALID,92.7838,VALID,0,VALID,21.4791,VALID,50,VALID,0.679297,
2010-03-12, 00:47:04,VALID,1005.09,VALID,0,VALID,92.2726,VALID,0,VALID,21.4791,VALID,50,VALID,0.716016,
2010-03-12, 00:48:04,VALID,1005.06,VALID,0,VALID,92.0743,VALID,0,VALID,21.4401,VALID,50,VALID,0.513281,
2010-03-12, 00:49:04,VALID,1005.03,VALID,0,VALID,91.8301,VALID,0,VALID,21.4011,VALID,50,VALID,0.372266,
2010-03-12, 00:50:04,VALID,1004.99,VALID,0,VALID,91.5097,VALID,0,VALID,21.3426,VALID,50,VALID,0.200391,
2010-03-12, 00:51:04,VALID,1005,VALID,0,VALID,91.4334,VALID,0,VALID,21.263,VALID,50,VALID,0,
2010-03-12, 00:52:04,VALID,1004.99,VALID,0,VALID,91.3876,VALID,0,VALID,21.2451,VALID,50,VALID,0,
2010-03-12, 00:53:04,VALID,1004.99,VALID,0,VALID,91.4105,VALID,0,VALID,21.1866,VALID,50,VALID,0,
2010-03-12, 00:54:04,VALID,1004.99,VALID,0,VALID,91.4944,VALID,0,VALID,21.1655,VALID,50,VALID,0,
2010-03-12, 00:55:04,VALID,1005,VALID,0,VALID,91.4257,VALID,0,VALID,21.1671,VALID,34,VALID,0.540625,
2010-03-12, 00:56:04,VALID,1004.95,VALID,0,VALID,91.5173,VALID,0,VALID,21.1476,VALID,31,VALID,0.739844,
2010-03-12, 00:57:04,VALID,1004.96,VALID,0,VALID,91.6088,VALID,0,VALID,21.1476,VALID,28,VALID,0.764063,
2010-03-12, 00:58:04,VALID,1004.94,VALID,0,VALID,91.7309,VALID,0,VALID,21.1476,VALID,29,VALID,0.708594,
2010-03-12, 00:59:04,VALID,1004.93,VALID,0,VALID,91.7233,VALID,0,VALID,21.1866,VALID,27,VALID,0.616797,
2010-03-12, 01:00:04,VALID,1004.9,VALID,0,VALID,91.5097,VALID,0.112286,VALID,21.1655,VALID,26,VALID,0.289063,
2010-03-12, 01:01:04,VALID,1004.87,VALID,0,VALID,91.3342,VALID,0.112286,VALID,21.107,VALID,26,VALID,0.211719,
2010-03-12, 01:02:04,VALID,1004.87,VALID,0,VALID,91.2731,VALID,0,VALID,21.0274,VALID,29,VALID,0.117188,
2010-03-12, 01:03:04,VALID,1004.88,VALID,0,VALID,91.2731,VALID,0,VALID,20.9705,VALID,29,VALID,0,
2010-03-12, 01:04:04,VALID,1004.86,VALID,0,VALID,91.3571,VALID,0,VALID,20.951,VALID,29,VALID,0,
2010-03-12, 01:05:04,VALID,1004.84,VALID,0,VALID,91.5554,VALID,0.112286,VALID,20.9315,VALID,29,VALID,0,
2010-03-12, 01:06:04,VALID,1004.86,VALID,0,VALID,91.708,VALID,0.112286,VALID,20.951,VALID,29,VALID,0,
2010-03-12, 01:07:04,VALID,1004.86,VALID,0,VALID,91.7233,VALID,0.112286,VALID,20.951,VALID,29,VALID,0,
2010-03-12, 01:08:04,VALID,1004.85,VALID,0,VALID,91.7462,VALID,0,VALID,20.951,VALID,29,VALID,0,
2010-03-12, 01:09:04,VALID,1004.82,VALID,0,VALID,91.7538,VALID,0,VALID,20.951,VALID,29,VALID,0,
2010-03-12, 01:10:04,VALID,1004.83,VALID,0,VALID,91.792,VALID,0,VALID,20.9705,VALID,29,VALID,0,
2010-03-12, 01:11:04,VALID,1004.81,VALID,0,VALID,91.7614,VALID,0.112286,VALID,20.951,VALID,29,VALID,0,
2010-03-12, 01:12:04,VALID,1004.79,VALID,0,VALID,91.8606,VALID,0,VALID,20.9526,VALID,29,VALID,0,
2010-03-12, 01:13:04,VALID,1004.8,VALID,0,VALID,91.8911,VALID,0,VALID,20.9526,VALID,29,VALID,0,
2010-03-12, 01:14:04,VALID,1004.81,VALID,0,VALID,91.9369,VALID,0,VALID,20.9526,VALID,29,VALID,0,
2010-03-12, 01:15:04,VALID,1004.77,VALID,0,VALID,91.9598,VALID,0.112286,VALID,20.951,VALID,29,VALID,0,
2010-03-12, 01:16:04,VALID,1004.75,VALID,0,VALID,91.9751,VALID,0.112286,VALID,20.951,VALID,29,VALID,0,
2010-03-12, 01:17:04,VALID,1004.71,VALID,0,VALID,92.0437,VALID,0,VALID,20.951,VALID,29,VALID,0,
2010-03-12, 01:18:04,VALID,1004.7,VALID,0,VALID,92.1277,VALID,0,VALID,20.99,VALID,29,VALID,0,
2010-03-12, 01:19:04,VALID,1004.66,VALID,0,VALID,92.1887,VALID,0.112286,VALID,21.0095,VALID,29,VALID,0,
2010-03-12, 01:20:04,VALID,1004.69,VALID,0,VALID,92.12,VALID,0.112286,VALID,20.9884,VALID,29,VALID,0,
2010-03-12, 01:21:04,VALID,1004.71,VALID,0,VALID,92.1887,VALID,0,VALID,21.0095,VALID,29,VALID,0,
2010-03-12, 01:22:04,VALID,1004.67,VALID,0,VALID,92.2421,VALID,0,VALID,21.029,VALID,29,VALID,0.521484,
2010-03-12, 01:23:04,VALID,1004.67,VALID,0,VALID,92.3031,VALID,0.112286,VALID,21.0485,VALID,29,VALID,0.372656,
2010-03-12, 01:24:04,VALID,1004.68,VALID,0,VALID,92.1887,VALID,0,VALID,21.0095,VALID,29,VALID,0,
2010-03-12, 01:25:04,VALID,1004.65,VALID,0,VALID,92.1048,VALID,0,VALID,20.99,VALID,29,VALID,0,
2010-03-12, 01:26:04,VALID,1004.65,VALID,0,VALID,91.9827,VALID,0,VALID,20.912,VALID,29,VALID,0,
2010-03-12, 01:27:04,VALID,1004.65,VALID,0,VALID,92.2268,VALID,0.112286,VALID,20.912,VALID,29,VALID,0,
2010-03-12, 01:28:04,VALID,1004.63,VALID,0,VALID,92.2726,VALID,0,VALID,20.8925,VALID,29,VALID,0,
2010-03-12, 01:29:04,VALID,1004.59,VALID,0,VALID,92.4634,VALID,0.112286,VALID,20.951,VALID,29,VALID,0,
2010-03-12, 01:30:04,VALID,1004.56,VALID,0,VALID,92.532,VALID,0,VALID,20.9705,VALID,29,VALID,0,
2010-03-12, 01:31:04,VALID,1004.56,VALID,0,VALID,92.4786,VALID,0.112286,VALID,20.9705,VALID,29,VALID,0,
2010-03-12, 01:32:04,VALID,1004.54,VALID,0,VALID,92.532,VALID,0,VALID,20.9494,VALID,29,VALID,0,
2010-03-12, 01:33:04,VALID,1004.47,VALID,0,VALID,92.5244,VALID,0.112286,VALID,20.9705,VALID,29,VALID,0,
2010-03-12, 01:34:04,VALID,1004.51,VALID,0,VALID,92.5702,VALID,0,VALID,20.9705,VALID,29,VALID,0,
2010-03-12, 01:35:04,VALID,1004.47,VALID,0,VALID,92.6846,VALID,0,VALID,20.9705,VALID,29,VALID,0,
2010-03-12, 01:36:04,VALID,1004.47,VALID,0,VALID,92.883,VALID,0,VALID,21.029,VALID,29,VALID,0,
2010-03-12, 01:37:04,VALID,1004.48,VALID,0,VALID,92.9745,VALID,0,VALID,21.107,VALID,78,VALID,0.717969,
2010-03-12, 01:38:04,VALID,1004.45,VALID,0,VALID,92.9517,VALID,0.112286,VALID,21.1249,VALID,87,VALID,0.595312,
2010-03-12, 01:39:04,VALID,1004.45,VALID,0,VALID,92.8448,VALID,0,VALID,21.1655,VALID,89,VALID,0.457422,
2010-03-12, 01:40:04,VALID,1004.42,VALID,0,VALID,92.7609,VALID,0,VALID,21.146,VALID,89,VALID,0.335938,
2010-03-12, 01:41:04,VALID,1004.41,VALID,0,VALID,92.6846,VALID,0,VALID,21.146,VALID,89,VALID,0.245312,
2010-03-12, 01:42:04,VALID,1004.41,VALID,0,VALID,92.6923,VALID,0.112286,VALID,21.1249,VALID,89,VALID,0.315625,
2010-03-12, 01:43:04,VALID,1004.4,VALID,0,VALID,92.8143,VALID,0,VALID,21.1655,VALID,89,VALID,0.432422,
2010-03-12, 01:44:04,VALID,1004.39,VALID,0,VALID,92.822,VALID,0,VALID,21.1639,VALID,89,VALID,0.420703,
2010-03-12, 01:45:04,VALID,1004.38,VALID,0,VALID,92.8143,VALID,0,VALID,21.185,VALID,89,VALID,0.404297,
2010-03-12, 01:46:04,VALID,1004.33,VALID,0,VALID,92.8754,VALID,0,VALID,21.224,VALID,89,VALID,0.280859,
2010-03-12, 01:47:04,VALID,1004.33,VALID,0,VALID,92.7609,VALID,0,VALID,21.2045,VALID,89,VALID,0.233984,
2010-03-12, 01:48:04,VALID,1004.31,VALID,0,VALID,92.7075,VALID,0,VALID,21.224,VALID,89,VALID,0,
2010-03-12, 01:49:04,VALID,1004.29,VALID,0,VALID,92.6388,VALID,0,VALID,21.185,VALID,89,VALID,0,
2010-03-12, 01:50:04,VALID,1004.28,VALID,0,VALID,92.6236,VALID,0,VALID,21.1866,VALID,89,VALID,0,
2010-03-12, 01:51:04,VALID,1004.25,VALID,0,VALID,92.6083,VALID,0,VALID,21.146,VALID,89,VALID,0,
2010-03-12, 01:52:04,VALID,1004.26,VALID,0,VALID,92.6007,VALID,0,VALID,21.1265,VALID,89,VALID,0,
2010-03-12, 01:53:04,VALID,1004.22,VALID,0,VALID,92.5626,VALID,0,VALID,21.1281,VALID,88,VALID,0,
2010-03-12, 01:54:04,VALID,1004.19,VALID,0,VALID,92.532,VALID,0,VALID,21.068,VALID,62,VALID,0,
2010-03-12, 01:55:04,VALID,1004.17,VALID,0,VALID,92.6312,VALID,0,VALID,21.029,VALID,58,VALID,0.750391,
2010-03-12, 01:56:04,VALID,1004.13,VALID,0,VALID,92.5091,VALID,0,VALID,21.0111,VALID,27,VALID,0.525781,
2010-03-12, 01:57:04,VALID,1004.13,VALID,0,VALID,92.5244,VALID,0,VALID,20.951,VALID,23,VALID,0.375781,
2010-03-12, 01:58:04,VALID,1004.14,VALID,0,VALID,92.532,VALID,0,VALID,20.9331,VALID,23,VALID,0.236719,
2010-03-12, 01:59:04,VALID,1004.13,VALID,0,VALID,92.6694,VALID,0,VALID,20.912,VALID,23,VALID,0,
2010-03-12, 02:00:04,VALID,1004.1,VALID,0,VALID,92.5931,VALID,0,VALID,20.8941,VALID,23,VALID,0,
2010-03-12, 02:01:04,VALID,1004.12,VALID,0,VALID,92.4557,VALID,0,VALID,20.795,VALID,23,VALID,0,
2010-03-12, 02:02:04,VALID,1004.11,VALID,0,VALID,92.2879,VALID,0,VALID,20.7366,VALID,23,VALID,0,
2010-03-12, 02:03:04,VALID,1004.12,VALID,0,VALID,92.265,VALID,0,VALID,20.6196,VALID,23,VALID,0.626172,
2010-03-12, 02:04:04,VALID,1004.11,VALID,0,VALID,92.5854,VALID,0,VALID,20.6196,VALID,23,VALID,0.590234,
2010-03-12, 02:05:04,VALID,1004.12,VALID,0,VALID,92.6388,VALID,0,VALID,20.6001,VALID,23,VALID,0.738281,
2010-03-12, 02:06:04,VALID,1004.12,VALID,0,VALID,92.9822,VALID,0,VALID,20.6196,VALID,23,VALID,0.832422,
2010-03-12, 02:07:04,VALID,1004.08,VALID,0,VALID,93.1958,VALID,0,VALID,20.6781,VALID,27,VALID,0.982031,
2010-03-12, 02:08:04,VALID,1004.07,VALID,0,VALID,93.3331,VALID,0,VALID,20.756,VALID,33,VALID,1.21719,
2010-03-12, 02:09:04,VALID,1004.05,VALID,0,VALID,93.028,VALID,0,VALID,20.7171,VALID,33,VALID,1.28008,
2010-03-12, 02:10:04,VALID,1004.05,VALID,0,VALID,92.7685,VALID,0,VALID,20.6781,VALID,43,VALID,1.30625,
2010-03-12, 02:11:04,VALID,1004.02,VALID,0,VALID,93.0356,VALID,0,VALID,20.6586,VALID,45,VALID,1.35156,
2010-03-12, 02:12:04,VALID,1004.03,VALID,0,VALID,93.15,VALID,0,VALID,20.7381,VALID,52,VALID,1.10391,
2010-03-12, 02:13:04,VALID,1004,VALID,0,VALID,93.1653,VALID,0,VALID,20.756,VALID,55,VALID,1.02891,
2010-03-12, 02:14:04,VALID,1004.02,VALID,0,VALID,93.0585,VALID,0,VALID,20.7366,VALID,57,VALID,0.921875,
2010-03-12, 02:15:04,VALID,1003.99,VALID,0,VALID,92.9898,VALID,0,VALID,20.7381,VALID,65,VALID,0.817578,
2010-03-12, 02:16:04,VALID,1003.97,VALID,0,VALID,92.822,VALID,0,VALID,20.6781,VALID,64,VALID,0.719531,
2010-03-12, 02:17:04,VALID,1003.97,VALID,0,VALID,92.8754,VALID,0,VALID,20.6796,VALID,62,VALID,0.733984,
2010-03-12, 02:18:04,VALID,1003.97,VALID,0,VALID,92.7838,VALID,0,VALID,20.6601,VALID,60,VALID,0.6,
2010-03-12, 02:19:04,VALID,1003.96,VALID,0,VALID,92.7991,VALID,0,VALID,20.6211,VALID,59,VALID,0.578125,
2010-03-12, 02:20:04,VALID,1003.98,VALID,0,VALID,92.677,VALID,0,VALID,20.5822,VALID,59,VALID,0.459766,
2010-03-12, 02:21:04,VALID,1003.97,VALID,0,VALID,92.8677,VALID,0,VALID,20.5627,VALID,59,VALID,0.499219,
2010-03-12, 02:22:04,VALID,1003.95,VALID,0,VALID,92.8296,VALID,0,VALID,20.5416,VALID,59,VALID,0.0992187,
2010-03-12, 02:23:04,VALID,1003.97,VALID,0,VALID,92.7609,VALID,0,VALID,20.5221,VALID,59,VALID,0.288672,
2010-03-12, 02:24:04,VALID,1003.98,VALID,0,VALID,92.8448,VALID,0,VALID,20.5432,VALID,59,VALID,0.571875,
2010-03-12, 02:25:04,VALID,1003.93,VALID,0,VALID,93.0127,VALID,0,VALID,20.5627,VALID,59,VALID,0.592188,
2010-03-12, 02:26:04,VALID,1003.95,VALID,0,VALID,93.1729,VALID,0,VALID,20.6406,VALID,59,VALID,0.643359,
2010-03-12, 02:27:04,VALID,1003.98,VALID,0,VALID,93.1882,VALID,0,VALID,20.6796,VALID,76,VALID,0.570703,
2010-03-12, 02:28:04,VALID,1003.97,VALID,0,VALID,93.2645,VALID,0,VALID,20.7366,VALID,76,VALID,0.349219,
2010-03-12, 02:29:04,VALID,1003.97,VALID,0,VALID,93.2034,VALID,0,VALID,20.7755,VALID,76,VALID,0.109766,
2010-03-12, 02:30:04,VALID,1003.95,VALID,0,VALID,93.1119,VALID,0,VALID,20.7771,VALID,76,VALID,0.028125,
2010-03-12, 02:31:04,VALID,1003.99,VALID,0,VALID,92.9669,VALID,0,VALID,20.7576,VALID,76,VALID,0,
2010-03-12, 02:32:04,VALID,1003.99,VALID,0,VALID,92.8754,VALID,0,VALID,20.7381,VALID,76,VALID,0,
2010-03-12, 02:33:04,VALID,1003.99,VALID,0,VALID,92.883,VALID,0,VALID,20.7576,VALID,76,VALID,0,
2010-03-12, 02:34:04,VALID,1004.01,VALID,0,VALID,92.8143,VALID,0,VALID,20.7576,VALID,76,VALID,0,
2010-03-12, 02:35:04,VALID,1004.03,VALID,0,VALID,92.7838,VALID,0,VALID,20.7397,VALID,76,VALID,0,
2010-03-12, 02:36:04,VALID,1004.02,VALID,0,VALID,92.8296,VALID,0,VALID,20.7397,VALID,76,VALID,0,
2010-03-12, 02:37:04,VALID,1004.03,VALID,0,VALID,92.7838,VALID,0,VALID,20.6991,VALID,76,VALID,0,
2010-03-12, 02:38:04,VALID,1004.03,VALID,0,VALID,92.883,VALID,0,VALID,20.7186,VALID,76,VALID,0,
2010-03-12, 02:39:04,VALID,1004.03,VALID,0,VALID,93.0966,VALID,0,VALID,20.7787,VALID,76,VALID,0,
2010-03-12, 02:40:04,VALID,1004.03,VALID,0,VALID,93.0737,VALID,0,VALID,20.8161,VALID,76,VALID,0,
2010-03-12, 02:41:04,VALID,1004.04,VALID,0,VALID,92.9822,VALID,0,VALID,20.7966,VALID,77,VALID,0,
2010-03-12, 02:42:04,VALID,1004.03,VALID,0,VALID,92.9974,VALID,0,VALID,20.8161,VALID,77,VALID,0,
2010-03-12, 02:43:04,VALID,1004.04,VALID,0,VALID,93.0508,VALID,0,VALID,20.8356,VALID,77,VALID,0,
2010-03-12, 02:44:04,VALID,1004.08,VALID,0,VALID,92.9898,VALID,0,VALID,20.8551,VALID,77,VALID,0,
2010-03-12, 02:45:04,VALID,1004.06,VALID,0,VALID,92.9135,VALID,0,VALID,20.8356,VALID,77,VALID,0,
2010-03-12, 02:46:04,VALID,1004.04,VALID,0,VALID,92.8525,VALID,0,VALID,20.8356,VALID,77,VALID,0,
2010-03-12, 02:47:04,VALID,1004.08,VALID,0,VALID,92.8143,VALID,0,VALID,20.8161,VALID,77,VALID,0,
2010-03-12, 02:48:04,VALID,1004.05,VALID,0,VALID,92.9822,VALID,0,VALID,20.795,VALID,59,VALID,0,
2010-03-12, 02:49:04,VALID,1004.07,VALID,0,VALID,93.0966,VALID,0,VALID,20.8551,VALID,59,VALID,0.548047,
2010-03-12, 02:50:04,VALID,1004.07,VALID,0,VALID,93.1348,VALID,0,VALID,20.8941,VALID,59,VALID,0.525391,
2010-03-12, 02:51:04,VALID,1004.07,VALID,0,VALID,93.0203,VALID,0,VALID,20.9136,VALID,59,VALID,0.471484,
2010-03-12, 02:52:04,VALID,1004.07,VALID,0,VALID,92.8525,VALID,0,VALID,20.8957,VALID,47,VALID,0.698047,
2010-03-12, 02:53:04,VALID,1004.04,VALID,0,VALID,92.883,VALID,0,VALID,20.8551,VALID,47,VALID,0.731641,
2010-03-12, 02:54:04,VALID,1004.03,VALID,0,VALID,92.8448,VALID,0,VALID,20.8356,VALID,47,VALID,0.744141,
2010-03-12, 02:55:04,VALID,1004.04,VALID,0,VALID,92.8448,VALID,0,VALID,20.8161,VALID,53,VALID,0.521094,
2010-03-12, 02:56:04,VALID,1004.04,VALID,0,VALID,93.0661,VALID,0,VALID,20.8356,VALID,106,VALID,0.591797,
2010-03-12, 02:57:05,VALID,1004.02,VALID,0,VALID,93.0432,VALID,0,VALID,20.8551,VALID,118,VALID,0.366797,
2010-03-12, 02:58:04,VALID,1004.03,VALID,0,VALID,93.0356,VALID,0,VALID,20.8746,VALID,118,VALID,0,
2010-03-12, 02:59:04,VALID,1004.05,VALID,0,VALID,92.9974,VALID,0,VALID,20.8746,VALID,112,VALID,0,
2010-03-12, 03:00:05,VALID,1004.05,VALID,0,VALID,92.8143,VALID,0,VALID,20.8762,VALID,1,VALID,1.29414,
2010-03-12, 03:01:05,VALID,1004.02,VALID,0,VALID,92.9669,VALID,0,VALID,20.8551,VALID,357,VALID,1.54766,
2010-03-12, 03:02:05,VALID,1004.01,VALID,0,VALID,93.2568,VALID,0,VALID,20.9721,VALID,14,VALID,1.28203,
2010-03-12, 03:03:05,VALID,1004,VALID,0,VALID,93.2645,VALID,0,VALID,21.0696,VALID,31,VALID,0.641797,
2010-03-12, 03:04:05,VALID,1004.01,VALID,0,VALID,93.028,VALID,0,VALID,21.0306,VALID,37,VALID,0.259766,
2010-03-12, 03:05:05,VALID,1004.01,VALID,0,VALID,92.9974,VALID,0,VALID,21.0306,VALID,63,VALID,0.658203,
2010-03-12, 03:06:05,VALID,1004,VALID,0,VALID,92.8372,VALID,0,VALID,21.0111,VALID,29,VALID,0.684766,
2010-03-12, 03:07:05,VALID,1004.01,VALID,0,VALID,92.5397,VALID,0,VALID,20.9526,VALID,16,VALID,0.601172,
2010-03-12, 03:08:05,VALID,1003.99,VALID,0,VALID,92.3566,VALID,0,VALID,20.8551,VALID,16,VALID,0.454688,
2010-03-12, 03:09:05,VALID,1003.98,VALID,0,VALID,92.5626,VALID,0,VALID,20.8356,VALID,16,VALID,0,
2010-03-12, 03:10:05,VALID,1003.99,VALID,0,VALID,92.7991,VALID,0,VALID,20.8356,VALID,34,VALID,0,
2010-03-12, 03:11:05,VALID,1003.95,VALID,0,VALID,92.9135,VALID,0,VALID,20.8957,VALID,48,VALID,0,
2010-03-12, 03:12:05,VALID,1003.94,VALID,0,VALID,93.0814,VALID,0,VALID,20.9136,VALID,56,VALID,0,
2010-03-12, 03:13:05,VALID,1003.94,VALID,0,VALID,92.8677,VALID,0,VALID,20.9331,VALID,56,VALID,0,
2010-03-12, 03:14:05,VALID,1003.92,VALID,0,VALID,92.6694,VALID,0,VALID,20.8941,VALID,56,VALID,0,
2010-03-12, 03:15:05,VALID,1003.91,VALID,0,VALID,92.5397,VALID,0,VALID,20.8356,VALID,56,VALID,0,
2010-03-12, 03:16:05,VALID,1003.88,VALID,0,VALID,92.3718,VALID,0,VALID,20.7771,VALID,40,VALID,0,
2010-03-12, 03:17:05,VALID,1003.9,VALID,0,VALID,92.6388,VALID,0,VALID,20.7381,VALID,39,VALID,0,
2010-03-12, 03:18:05,VALID,1003.88,VALID,0,VALID,92.8677,VALID,0,VALID,20.7576,VALID,39,VALID,0,
2010-03-12, 03:19:05,VALID,1003.86,VALID,0,VALID,92.9211,VALID,0,VALID,20.7966,VALID,39,VALID,0,
2010-03-12, 03:20:05,VALID,1003.82,VALID,0,VALID,92.8677,VALID,0,VALID,20.7966,VALID,39,VALID,0,
2010-03-12, 03:21:05,VALID,1003.84,VALID,0,VALID,92.8296,VALID,0,VALID,20.7966,VALID,39,VALID,0,
2010-03-12, 03:22:05,VALID,1003.84,VALID,0,VALID,92.9135,VALID,0,VALID,20.7966,VALID,39,VALID,0,
2010-03-12, 03:23:05,VALID,1003.84,VALID,0,VALID,92.9669,VALID,0,VALID,20.8161,VALID,39,VALID,0,
2010-03-12, 03:24:05,VALID,1003.85,VALID,0,VALID,93.0661,VALID,0,VALID,20.8356,VALID,39,VALID,0,
2010-03-12, 03:25:05,VALID,1003.86,VALID,0,VALID,93.0508,VALID,0,VALID,20.8746,VALID,39,VALID,0,
2010-03-12, 03:26:05,VALID,1003.87,VALID,0,VALID,93.0356,VALID,0,VALID,20.8746,VALID,39,VALID,0,
2010-03-12, 03:27:05,VALID,1003.86,VALID,0,VALID,92.9593,VALID,0,VALID,20.8746,VALID,39,VALID,0,
2010-03-12, 03:28:05,VALID,1003.86,VALID,0,VALID,92.8372,VALID,0,VALID,20.8762,VALID,39,VALID,0,
2010-03-12, 03:29:05,VALID,1003.86,VALID,0,VALID,92.8525,VALID,0,VALID,20.8161,VALID,39,VALID,0,
2010-03-12, 03:30:05,VALID,1003.85,VALID,0,VALID,92.7151,VALID,0,VALID,20.795,VALID,39,VALID,0,
2010-03-12, 03:31:05,VALID,1003.85,VALID,0,VALID,92.5168,VALID,0,VALID,20.6976,VALID,39,VALID,0,
2010-03-12, 03:32:05,VALID,1003.84,VALID,0,VALID,92.7533,VALID,0,VALID,20.6391,VALID,39,VALID,0,
2010-03-12, 03:33:05,VALID,1003.89,VALID,0,VALID,92.9135,VALID,0,VALID,20.6391,VALID,39,VALID,0,
2010-03-12, 03:34:05,VALID,1003.87,VALID,0,VALID,93.15,VALID,0,VALID,20.6976,VALID,110,VALID,0,
2010-03-12, 03:35:05,VALID,1003.91,VALID,0,VALID,92.9669,VALID,0,VALID,20.6976,VALID,110,VALID,0,
2010-03-12, 03:36:05,VALID,1003.92,VALID,0,VALID,92.9288,VALID,0,VALID,20.6586,VALID,110,VALID,0,
2010-03-12, 03:37:05,VALID,1003.95,VALID,0,VALID,92.944,VALID,0,VALID,20.6781,VALID,110,VALID,0,
2010-03-12, 03:38:05,VALID,1003.97,VALID,0,VALID,93.0508,VALID,0,VALID,20.6781,VALID,110,VALID,0,
2010-03-12, 03:39:05,VALID,1003.98,VALID,0,VALID,93.0814,VALID,0,VALID,20.6976,VALID,75,VALID,0,
2010-03-12, 03:40:05,VALID,1003.95,VALID,0,VALID,92.6846,VALID,0,VALID,20.6001,VALID,35,VALID,0,
2010-03-12, 03:41:05,VALID,1003.96,VALID,0,VALID,92.8143,VALID,0,VALID,20.5611,VALID,35,VALID,0,
2010-03-12, 03:42:05,VALID,1003.98,VALID,0,VALID,93.0508,VALID,0,VALID,20.6001,VALID,35,VALID,0,
2010-03-12, 03:43:05,VALID,1003.97,VALID,0,VALID,93.089,VALID,0,VALID,20.6196,VALID,35,VALID,0,
2010-03-12, 03:44:05,VALID,1003.98,VALID,0,VALID,93.1271,VALID,0,VALID,20.6391,VALID,35,VALID,0,
2010-03-12, 03:45:05,VALID,1004,VALID,0,VALID,93.15,VALID,0,VALID,20.6601,VALID,36,VALID,0,
2010-03-12, 03:46:05,VALID,1004.03,VALID,0,VALID,93.1348,VALID,0,VALID,20.6796,VALID,36,VALID,0,
2010-03-12, 03:47:05,VALID,1004.06,VALID,0,VALID,92.9974,VALID,0,VALID,20.6601,VALID,36,VALID,0,
2010-03-12, 03:48:05,VALID,1004.06,VALID,0,VALID,92.9745,VALID,0,VALID,20.6406,VALID,35,VALID,0,
2010-03-12, 03:49:05,VALID,1004.08,VALID,0,VALID,93.0356,VALID,0,VALID,20.6211,VALID,35,VALID,0,
2010-03-12, 03:50:05,VALID,1004.07,VALID,0,VALID,93.1805,VALID,0,VALID,20.6601,VALID,35,VALID,0,
2010-03-12, 03:51:05,VALID,1004.08,VALID,0,VALID,93.2492,VALID,0,VALID,20.6796,VALID,36,VALID,0,
2010-03-12, 03:52:05,VALID,1004.08,VALID,0,VALID,93.089,VALID,0,VALID,20.6796,VALID,36,VALID,0,
2010-03-12, 03:53:05,VALID,1004.08,VALID,0,VALID,93.0737,VALID,0,VALID,20.6617,VALID,35,VALID,0,
2010-03-12, 03:54:05,VALID,1004.09,VALID,0,VALID,93.1424,VALID,0,VALID,20.6406,VALID,36,VALID,0,